YOMOGI (62298 NORAD) Tracking and Keplerian Element Data

This shows tracking and keplerian element data for the satellite.

Feedback or suggestion? Click here.




ElementValue
Catalog62298
NameYOMOGI
Epoch Orbit882
Epoch Day34.98546083
Epoch Year2025
RAAN243.9128
Inclination51.6307
Eccentricity0.0013678
Argument of Perigee188.1533
Mean Anonmoly171.9242
Mean Motion15.6465891
Decay Rate0.00145757
L11 62298U 98067XE 25034.98546083 .00145757 00000+0 14478-2 0 9998
L22 62298 51.6307 243.9128 0013678 188.1533 171.9242 15.64658910 8823



Live tracking and technical data element details for YOMOGI (NORAD 62298). YOMOGI can be tracked NOW for your location showing map with azimuth and elevation plus other details from your city location.







IsCatalogInMostPopularTable: catalog: 62298, numindb: 9
Update: records affected: 1



GetName: 62298 YOMOGI

Hit Count: updated at: Mon, 19 May 2025 02:17:00 GMT